Boonton, New Jersey, United States (07005)
Lat: 40.90N, Lon: 74.41W
Wx Zone: NJZ008
Local Info
Past Weather Observations for Monday, July 27, 2015

NOTE: This archive is for the closest National Weather Service station to Boonton. Information may differ from the station used for current weather conditions.

Click here for Long-term Archive

Time Weather Temperature Dewpoint Humidity Pressure Winds Precip Visibility
23:53
Clear
73°F / 23°C 68°F / 20°C 83% 30.04 in
(1017 mb)
Calm - 10SM
22:53
Clear
75°F / 24°C 68°F / 20°C 78% 30.04 in
(1017 mb)
Calm - 10SM
21:53
Clear
77°F / 25°C 68°F / 20°C 74% 30.04 in
(1017 mb)
Calm - 10SM
20:53
Partly Cloudy
79°F / 26°C 68°F / 20°C 70% 30.04 in
(1017 mb)
Calm - 10SM
19:53
Mostly Cloudy
81°F / 27°C 70°F / 21°C 70% 30.01 in
(1016 mb)
SW 3.5 mph
(SW 6 kph)
- 10SM
18:53
Partly Cloudy
81°F / 27°C 68°F / 20°C 66% 30.01 in
(1016 mb)
SSE 4.6 mph
(SSE 7 kph)
- 10SM
17:53
Mostly Cloudy
82°F / 28°C 68°F / 20°C 62% 29.98 in
(1015 mb)
S 8.1 mph
(S 13 kph)
- 10SM
16:53
Mostly Cloudy
81°F / 27°C 68°F / 20°C 66% 29.98 in
(1015 mb)
SSE 10.4 mph
(SSE 17 kph)
0.00 in
(0.00 mm)
10SM
15:53
Mostly Cloudy
Light Rain
82°F / 28°C 70°F / 21°C 66% 29.98 in
(1015 mb)
S 8.1 mph
(S 13 kph)
0.00 in
(0.00 mm)
10SM
14:53
Mostly Cloudy
82°F / 28°C 66°F / 19°C 58% 29.98 in
(1015 mb)
SSE 10.4 mph
(SSE 17 kph)
- 10SM
13:53
Clear
86°F / 30°C 64°F / 18°C 49% 29.98 in
(1015 mb)
Variable 3.5 mph
(Variable 6 kph)
- 10SM
12:53
Partly Cloudy
84°F / 29°C 64°F / 18°C 51% 30.01 in
(1016 mb)
Variable 4.6 mph
(Variable 7 kph)
- 10SM
11:53
Partly Cloudy
82°F / 28°C 64°F / 18°C 55% 30.04 in
(1017 mb)
SW 6.9 mph
(SW 11 kph)
- 10SM
10:53
Partly Cloudy
81°F / 27°C 66°F / 19°C 62% 30.04 in
(1017 mb)
Calm - 10SM
09:53
Partly Cloudy
77°F / 25°C 66°F / 19°C 69% 30.04 in
(1017 mb)
SSW 4.6 mph
(SSW 7 kph)
- 10SM
09:49
Mostly Cloudy
77°F / 25°C 66°F / 19°C 69% 30.04 in
(1017 mb)
SSW 4.6 mph
(SSW 7 kph)
- 10SM
09:42
Mostly Cloudy
79°F / 26°C 66°F / 19°C 65% 30.04 in
(1017 mb)
WNW 6.9 mph
(WNW 11 kph)
- 10SM
08:53
Overcast
73°F / 23°C 68°F / 20°C 83% 30.04 in
(1017 mb)
Variable 4.6 mph
(Variable 7 kph)
- 10SM
07:53
Partly Cloudy
73°F / 23°C 66°F / 19°C 78% 30.04 in
(1017 mb)
Variable 3.5 mph
(Variable 6 kph)
- 10SM
06:53
Clear
72°F / 22°C 66°F / 19°C 83% 30.04 in
(1017 mb)
Calm - 10SM
05:53
Partly Cloudy
72°F / 22°C 66°F / 19°C 83% 30.01 in
(1016 mb)
Calm - 10SM
04:53
Mostly Cloudy
72°F / 22°C 66°F / 19°C 83% 30.01 in
(1016 mb)
Calm - 10SM
03:53
Clear
72°F / 22°C 68°F / 20°C 88% 30.01 in
(1016 mb)
S 3.5 mph
(S 6 kph)
0.00 in
(0.00 mm)
9SM
02:53
Partly Cloudy
Light Rain
72°F / 22°C 66°F / 19°C 83% 30.01 in
(1016 mb)
Calm 0.01 in
(0.25 mm)
10SM
02:26
Overcast
Light Rain
70°F / 21°C 66°F / 19°C 88% 30.01 in
(1016 mb)
Calm 0.01 in
(0.25 mm)
7SM
02:18
Overcast
Light Rain
72°F / 22°C 66°F / 19°C 83% 30.01 in
(1016 mb)
Calm 0.01 in
(0.25 mm)
7SM
02:05
Mostly Cloudy
Light Rain
72°F / 22°C 68°F / 20°C 88% 30.01 in
(1016 mb)
Calm 0.00 in
(0.00 mm)
8SM
01:53
Partly Cloudy
Light Rain
70°F / 21°C 66°F / 19°C 88% 30.01 in
(1016 mb)
Calm 0.00 in
(0.00 mm)
9SM
00:53
Mostly Cloudy
Light Rain
72°F / 22°C 68°F / 20°C 88% 30.01 in
(1016 mb)
Calm 0.00 in
(0.00 mm)
10SM
Time Weather Temperature Dewpoint Humidity Pressure Winds Precip Visibility


Weather for websites

WeatherForYou.com, LLC is not responsible for any damages or problems caused by this service. Current weather conditions are obtained from the closest station including government and personal stations which may have varying degrees of accuracy. Weather forecasts are derived from the NOAA NDFD. Like all things, this site belongs to Jesus Christ... He just trusts us to maintain it. If you have any questions or comments email webmaster@weatherforyou.com

Copyright © 2015, WeatherForYou.com LLC. All rights reserved.